Weather in Treinta y Tres

Uruguay     33°14′02″S   54°23′51″W
temp.,
°C
wind,
m/s
gust,
m/s
humid.,
%
clouds,
%
prec.,
mm/h
press.,
hPa
HPBL,
m
24 january, mon
mon2400:00+23e269655 0.8 1012258
03:00+22ese119899 1.4 101116
06:00+21ese359824 1.8 1012154
09:00+25e228343 3.5 1013493
12:00+30ne116552 0.0 10121089
15:00+32ssw2254100 0.2 10101507
18:00+32sse5556100 0.0 10081437
21:00+25ene51187100 0.7 1010532
25 january, tue
tue2500:00+23ene3793100 0.0 1011267
03:00+22e2398100 0.0 100989
06:00+22e229866 0.0 101056
09:00+27e227996 0.0 1010514
12:00+32sse115467 0.0 10091264
15:00+34sse224598 0.0 10072079
18:00+29se697194 0.6 1006419
21:00+23ese71296100 32.1 1010572
26 january, wed
wed2600:00+22ene51193100 0.8 1009393
03:00+23ne51295100 0.9 1005397
06:00+23s4695100 0.2 1008271
09:00+23se2597100 1.7 1009264
12:00+24e228764 0.9 1009498
15:00+28sse446968 2.8 1008998
18:00+26sse698020 6.4 1009938
21:00+22sse81492100 7.4 1012805
27 january, thu
thu2700:00+20sse81287100 0.1 1015885
03:00+18sse6137948 0.1 1015619
06:00+15s412854 0.0 1016362
09:00+20sse796496 0.0 10181114
12:00+24sse78495 0.0 10181646
15:00+25sse77450 0.0 10161830
18:00+23se77540 0.0 10171447
21:00+17se49730 0.0 1018233
28 january, fri
fri2800:00+15ese237855 0.0 101841
03:00+19e355887 0.0 1017214
06:00+18ese236580 0.0 101662
09:00+21ese345652 0.0 10171341
12:00+24e34491 0.0 10151658
15:00+27se33415 0.0 10132050
18:00+26e444868 0.0 10111360
21:00+18ese410690 0.0 1013254